Regional Weather Roundup
Issued by NWS Kansas City/Pleasant Hill, MO

Home | Current Version | Previous Version | Graphics & Text | Print | Product List | Glossary Off
Versions: 1 2 3 4 5 6 7 8 9 10 11 12 13 14 15 16 17 18 19 20 21 22 23 24 25 26 27

000
ASUS43 KEAX 262110
RWREAX

WEATHER ROUNDUP FOR EASTERN KANSAS AND NORTHWEST MISSOURI
NATIONAL WEATHER SERVICE KANSAS CITY/PLEASANT HILL MO
400 PM CDT TUE JUL 26 2016

KSZ040-057-103>105-MOZ028-029-037-043-262200-
...KANSAS CITY METROPOLITAN AREA...

CITY           SKY/WX    TMP DP  RH WIND       PRES   REMARKS
K.C. INTL      MOSUNNY   87  67  51 NE7       30.00F HX  90
K.C. DOWNTOWN  SUNNY     88  66  48 E5        29.98F HX  90
LEES SUMMIT    SUNNY     85  68  56 E8        30.00F
OLATHE - IXD   SUNNY     88  66  48 E9        30.00F HX  90
OLATHE - OJC   SUNNY     86  67  52 E10       30.00F
LAWRENCE       SUNNY     88  67  49 E6        29.98F HX  91

$$

MOZ001>008-011>017-020>025-030>033-038>040-044>046-053-054-262200-
...NORTHERN AND CENTRAL MISSOURI...

CITY           SKY/WX    TMP DP  RH WIND       PRES   REMARKS
ST. JOSEPH     SUNNY     89  66  46 NE8       29.99F HX  91
MOSBY          CLEAR     86  63  45 NE3       29.99F
WHITEMAN AFB   MOSUNNY   85  71  64 NE7       29.98F HX  90
CLINTON        MOSUNNY   86  70  58 NE5       29.98F HX  90
SEDALIA        SUNNY     88  70  55 E6        30.00F HX  93
WARSAW         NOT AVBL
CHILLICOTHE      N/A     86  66  51 VRB3      30.01F
KIRKSVILLE     MOSUNNY   87  63  44 VRB3      30.02F

$$

MOZ041-047>049-056>058-063>065-088>090-097-262200-
...EASTERN AND SOUTHERN MISSOURI...

CITY           SKY/WX    TMP DP  RH WIND       PRES   REMARKS
ST. LOUIS INTL CLOUDY    91  73  55 N7        29.98F HX  99
SPIRIT OF STL  CLOUDY    89  74  60 N6        29.96F HX  98
COLUMBIA       MOSUNNY   85  71  63 NE6       29.99F HX  90
JEFFERSON CITY MOSUNNY   87  71  58 N6        29.97F HX  93
ROLLA          LGT RAIN  84  74  71 N3        29.99S HX  91
OSAGE BEACH    MOSUNNY   86  71  60 E3        29.99F HX  91
SPRINGFIELD    CLOUDY    84  73  69 SE3       29.97F HX  90
BRANSON        LGT RAIN  73  73 100 S5        30.00F
JOPLIN         CLOUDY    88  74  63 NE7       29.95F HX  96
WEST PLAINS    CLOUDY    79  72  79 CALM      30.02F

$$

IAZ060-094-KSZ022-034>040-054-083-096-NEZ052-066-093-262200-
...KANSAS...SOUTHEAST NEBRASKA AND IOWA...

CITY           SKY/WX    TMP DP  RH WIND       PRES   REMARKS
TOPEKA         SUNNY     89  67  47 E7        29.99F HX  92
MANHATTAN      SUNNY     88  70  55 VRB5      29.99F HX  93
EMPORIA        MOSUNNY   85  69  58 E9        30.00F
CHANUTE        CLOUDY    87  73  62 NE7       29.96F HX  94
WICHITA        PTSUNNY   90  70  51 VRB3      29.97F HX  95
OMAHA          PTSUNNY   86  64  47 E8        30.02F
LINCOLN        SUNNY     88  64  44 E12       30.02F
FALLS CITY     SUNNY     86  68  54 SE6       30.00F
LAMONI         MOSUNNY   84  67  56 E7        30.02F
DES MOINES     MOSUNNY   86  64  47 E8        30.02F

$$





USA.gov is the U.S. government's official web portal to all federal, state and local government web resources and services.